Regional Weather Roundup
Issued by NWS Wilmington, NC

Home | Current Version | Previous Version | Text Only | Print | Product List | Glossary On
Versions: 1 2 3 4 5 6 7 8 9 10 11 12 13 14 15 16 17 18 19 20 21 22 23 24 25 26 27 28 29 30 31 32 33 34 35 36 37 38 39 40 41 42 43 44 45 46 47 48 49 50
000
ASUS42 KILM 081013
RWRILM
RWRILM
REGIONAL HOURLY WEATHER ROUNDUP
NATIONAL WEATHER SERVICE WILMINGTON NC
500 AM EST MON FEB 08 2016

NOTE: "FAIR" INDICATES FEW OR NO CLOUDS BELOW 12,000 FEET WITH NO
SIGNIFICANT WEATHER AND/OR OBSTRUCTIONS TO VISIBILITY.

...............WFO WILMINGTON COUNTY WARNING AREA...............

......COASTAL NC AND SC COUNTIES......

CITY           SKY/WX    TMP DP  RH WIND       PRES   REMARKS
WILMINGTON     CLEAR     38  26  62 W8        29.84R WCI  32
N MYRTLE BEACH CLEAR     37  28  70 W7        29.87R WCI  32
MYRTLE BEACH   CLEAR     37  25  60 W5        29.90S WCI  34

......INLAND NC AND SC COUNTIES.......

CITY           SKY/WX    TMP DP  RH WIND       PRES   REMARKS
LUMBERTON      PTCLDY    32  27  81 W3        29.86R
ELIZABETHTOWN  CLEAR     36  28  71 W3        29.85R
WHITEVILLE     CLEAR     36  28  70 CALM      29.86R
FLORENCE       CLEAR     32  27  81 CALM      29.87F
DARLINGTON     CLEAR     30  25  80 CALM      29.87F
KINGSTREE      FAIR      32  30  93 CALM      29.88F
HARTSVILLE     FAIR      30  28  93 CALM      29.85F
BENNETTSVILLE  FAIR      32  32 100 CALM      29.85F
CONWAY         FAIR      32  32 100 CALM      29.89R
GEORGETOWN     FAIR      32  30  93 CALM      29.90F
MARION         FAIR      32  30  93 CALM      29.88R

....................REST OF NORTH CAROLINA......................

.........EASTERN NC.........

CITY           SKY/WX    TMP DP  RH WIND       PRES   REMARKS
CAPE HATTERAS  CLOUDY    42  34  73 NW21G30   29.67R
JACKSONVILLE   CLEAR     36  21  55 W3        29.81S
MOREHEAD CITY  CLEAR     38  27  64 NW18      29.77R WCI  28
KENANSVILLE      N/A     35  25  66 CALM      29.83R
NEW BERN       CLEAR     37  24  59 W7        29.79R WCI  32
ELIZABETH CITY CLOUDY    38  28  67 NW12      29.71R WCI  30

.........CENTRAL NC.........

CITY           SKY/WX    TMP DP  RH WIND       PRES   REMARKS
RALEIGH DURHAM PTCLDY    32  23  69 CALM      29.82R
ROCKY MOUNT    CLEAR     34  24  67 W7        29.81R WCI  28
ROANOKE RAPIDS NOT AVBL
FAYETTEVILLE   CLEAR     34  25  69 W7        29.84S WCI  28
HOFFMAN        CLEAR     29  25  86 S3        29.83F

.........WESTERN NC.........

CITY           SKY/WX    TMP DP  RH WIND       PRES   REMARKS
CHARLOTTE      CLEAR     31  21  66 CALM      29.83F
GREENSBORO     MOCLDY    30  23  75 SW3       29.79F
HICKORY        NOT AVBL
BOONE          NOT AVBL
ASHEVILLE      NOT AVBL

.....................REST OF SOUTH CAROLINA.....................

.........EASTERN SC.........

CITY           SKY/WX    TMP DP  RH WIND       PRES   REMARKS
CHARLESTON     CLEAR     34  29  82 CALM      29.89F
BEAUFORT MCAS  CLEAR     37  29  72 W8        29.91F WCI  31
HILTON HEAD    CLEAR     41  32  70 SW6       29.94F

.........CENTRAL SC.........

CITY           SKY/WX    TMP DP  RH WIND       PRES   REMARKS
COLUMBIA       CLEAR     29  24  82 W5        29.86F WCI  24
ORANGEBURG     CLEAR     32  28  85 CALM      29.87F
SUMTER SHAW    CLEAR     32  27  81 SW2       29.84F

.........WESTERN SC.........

CITY           SKY/WX    TMP DP  RH WIND       PRES   REMARKS
GREENVILLE     NOT AVBL
ROCK HILL      CLEAR     29  24  82 SW7       29.83F WCI  22
ANDERSON       PTCLDY    38  23  55 SW3       29.84F
CLEMSON        NOT AVBL
GREENWOOD      CLEAR     38  24  57 W8        29.86F WCI  32


...................COASTAL AND OFFSHORE REPORTS..................

................LOCAL PIERS AND NC RESERVE................


STATION/POSITION TIME  SKY/WX   TEMP    WIND        PRES    VSBY
                                AIR SEA DIR/SP/G
                 (UTC)          (F)     (DEG/KT/KT) (MB)    (MI)
JOHNY MRCER PIER 0900            40 52  300/  9/ 14 1008.4R
NC RESRV MASNBRO NOT AVBL
OCEAN CREST PIER NOT AVBL
SPRINGMAID  PIER 0900            40 51  260/  6/  8 1011.1R


................COASTAL AND OFFSHORE BUOYS................


STATION/POSITION TIME  SKY/WX   TEMP    WIND        PRES    VSBY
                                AIR SEA DIR/SP/G
                 (UTC)          (F)     (DEG/KT/KT) (MB)    (MI)
DIMNDSHOAL 41025 0950            46 70  320/ 27/ 33 1003.3R
WVE H/P(F/S)= 13/12 SWL H/P/D(F/S/D)= 10/ 90/12

CAPE LOOKOUT     NOT AVBL
ONSLOW BAY 41036 NOT AVBL
ONSLOW BAY 41064 0908            47 58              1005.6R
ONSLOW BAY 41159 0925               59                N/A
WVE H/P(F/S)= 10/ 6 SWL H/P/D(F/S/D)=  5/ 90/13

5SE WRITBC 41038 NOT AVBL
MASNBO INL 41110 0906               52                N/A
WVE H/P(F/S)=  3/11 SWL H/P/D(F/S/D)=  2/100/11

WILM HARBR 41108 0926               51                N/A
WVE H/P(F/S)=  4/ 5 SWL H/P/D(F/S/D)=  2/130/12

27SE WRITB 41037 0908            47 60  360/ 23/ 33 1006.7R
FRYING PAN 41013 0900            49 63  310/ 21/ 27 1009.9R
SUNST NRSH 41024 NOT AVBL
CAPRS NRSH 41029 0908            46     280/ 12/ 14 1012.5R
EDISTO     41004 0950            53 66  300/ 12/ 16 1011.9F
WVE H/P(F/S)=  5/ 8 SWL H/P/D(F/S/D)=  5/ 8



..........OFFSHORE BUOYS BEYOND 100 NM OFFSHORE...........
.....IN A TRIANGLE---HAT TO BERMUDA TO BAHAMAS TO HAT.....


STATION/POSITION TIME  SKY/WX   TEMP    WIND        PRES    VSBY
                                AIR SEA DIR/SP/G
                 (UTC)          (F)     (DEG/KT/KT) (MB)    (MI)
150E HAT   41001 1000            59 71  320/ 45/ 62  989.4R
W BERMUDA  41048 0950            66 70  230/ 47/ 58  995.0R
WVE H/P(F/S)= 37/13

ATLANTIC S 41049 0950            75 73  180/ 23/ 27 1013.2F
WVE H/P(F/S)=  9/ 7 SWL H/P/D(F/S/D)=  2/330/11

E BAHAMAS  41046 0950            79 79  220/ 16/ 19 1014.3R
WVE H/P(F/S)=  7/ 8 SWL H/P/D(F/S/D)=  5/110/ 8

NE BAHAMAS 41047 0950            70 75  270/ 25/ 31 1011.6R
WVE H/P(F/S)= 17/10

120E CANVRL41010 0920            62 73              1014.2R

END



USA.gov is the U.S. government's official web portal to all federal, state and local government web resources and services.